KE9LZ-9 Weather Reports


time (UTC)temp
F
wind
direction
speed
knots
gust
knots
rain 1hr
in
rain 24hr
in
rain mn
in
humidity
%
barometer
mb
20260903092004 61 27 0.9 0.9 0.00 0.15 0.00 99 1014.3
20260903091004 62 18 0.9 1.7 0.00 0.15 0.00 99 1014.4
20260903090004 61 14 0.9 0.9 0.00 0.15 0.00 99 1014.4
20260903085004 61 19 0.9 0.9 0.00 0.15 0.00 99 1014.2
20260903084004 61 5 0.9 1.7 0.00 0.15 0.00 99 1014.5
20260903083004 61 15 0.9 0.9 0.00 0.15 0.00 99 1014.5
20260903081004 62 36 0.9 1.7 0.00 0.15 0.00 99 1014.4
20260903080004 62 18 0.9 1.7 0.00 0.15 0.00 99 1014.4
20260903075004 62 346 0.0 0.9 0.00 0.15 0.00 99 1014.4
20260903074004 62 14 0.9 1.7 0.00 0.15 0.00 99 1014.4
20260903072004 62 345 0.0 0.9 0.00 0.15 0.00 99 1014.6
20260903071004 63 2 0.9 0.9 0.00 0.15 0.00 99 1014.5
20260903070004 63 22 0.0 1.7 0.00 0.15 0.00 99 1014.6
20260903065004 63 343 0.0 1.7 0.00 0.15 0.00 99 1014.7
20260903064004 63 41 0.0 1.7 0.00 0.15 0.00 99 1014.6
20260903063004 63 43 0.9 0.9 0.00 0.15 0.00 99 1014.7
20260903062004 63 47 0.0 0.9 0.00 0.15 0.00 99 1014.5
20260903061003 63 51 0.0 0.9 0.00 0.15 0.00 99 1014.5
20260903060004 63 31 0.9 1.7 0.00 0.15 0.00 99 1014.5
20260903055004 64 22 0.0 0.9 0.00 0.15 0.00 99 1014.5
20260903054004 64 24 0.0 0.9 0.00 0.15 0.00 99 1014.4
20260903053004 64 41 0.0 1.7 0.00 0.15 0.00 99 1014.3
20260903052004 64 35 0.0 1.7 0.00 0.15 0.00 99 1014.2
20260903051004 65 31 0.9 0.9 0.00 0.15 0.00 99 1014.3
20260903050003 65 34 0.0 0.9 0.00 0.15 0.00 99 1014.3
20260903045004 65 47 0.9 1.7 0.00 0.15 0.15 99 1014.2
20260903044004 65 23 0.9 1.7 0.00 0.15 0.15 99 1014.0
20260903043004 65 55 0.9 1.7 0.00 0.15 0.15 99 1014.0
20260903042004 65 19 0.9 1.7 0.00 0.15 0.15 99 1014.0
20260903041003 65 31 0.9 1.7 0.00 0.15 0.15 99 1014.0
20260903040004 66 3 0.0 1.7 0.00 0.15 0.15 99 1014.0
20260903035003 66 42 0.0 2.6 0.00 0.15 0.15 99 1013.9
20260903034004 66 4 0.9 1.7 0.00 0.15 0.15 99 1013.7
20260903032004 66 1 0.0 0.9 0.00 0.15 0.15 99 1013.6
20260903031004 66 5 0.0 0.9 0.00 0.15 0.15 99 1013.4
20260903030004 67 11 0.0 0.9 0.00 0.15 0.15 98 1013.5
20260903025004 67 322 0.0 0.9 0.00 0.15 0.15 98 1013.6
20260903024004 67 341 0.0 0.9 0.00 0.15 0.15 98 1013.5
20260903023004 67 1 0.0 0.9 0.00 0.15 0.15 98 1013.6
20260903022004 67 42 0.0 0.9 0.00 0.15 0.15 97 1013.4
20260903021004 67 47 0.0 0.9 0.00 0.15 0.15 97 1013.3
20260903015004 68 17 0.0 0.9 0.00 0.15 0.15 95 1013.0
20260903014003 68 345 0.0 0.0 0.00 0.15 0.15 95 1012.8
20260903013004 68 4 0.0 0.0 0.00 0.15 0.15 94 1013.0
20260903012004 69 15 0.0 0.9 0.00 0.15 0.15 93 1012.8
20260903011004 69 327 0.0 0.9 0.00 0.15 0.15 92 1012.7
20260903005004 71 0 0.0 0.9 0.00 0.15 0.15 91 1012.5
20260903004004 71 322 0.0 0.9 0.00 0.15 0.15 90 1012.5
20260903003004 72 339 0.0 0.9 0.00 0.15 0.15 89 1012.6
20260903002004 73 322 0.0 0.0 0.00 0.15 0.15 88 1012.6
20260903000004 76 356 0.0 0.9 0.00 0.15 0.15 84 1012.5
20260902235004 77 353 0.0 0.9 0.00 0.15 0.15 81 1012.5
20260902234003 78 33 0.0 0.9 0.00 0.15 0.15 76 1012.5
20260902233004 80 344 0.0 0.9 0.00 0.15 0.15 72 1012.5
20260902232004 81 299 0.0 1.7 0.00 0.15 0.15 69 1012.5
20260902231004 81 343 0.9 2.6 0.00 0.15 0.15 67 1012.7
20260902230004 82 322 0.9 2.6 0.00 0.15 0.15 67 1012.7
20260902225004 82 280 0.9 4.3 0.00 0.15 0.15 65 1012.7
20260902224003 83 296 1.7 2.6 0.00 0.15 0.15 63 1012.6
20260902223003 84 89 0.9 2.6 0.00 0.15 0.15 61 1012.8
20260902222004 83 263 1.7 4.3 0.00 0.15 0.15 61 1012.6
20260902220004 83 87 0.9 4.3 0.00 0.15 0.15 60 1012.6
20260902215003 84 280 0.9 2.6 0.00 0.15 0.15 59 1012.8
20260902214004 83 271 1.7 5.2 0.00 0.15 0.15 59 1012.8
20260902213004 84 294 0.9 5.2 0.00 0.15 0.15 59 1012.8
20260902211004 83 191 0.9 2.6 0.00 0.15 0.15 59 1012.8
20260902210004 84 301 2.6 5.2 0.00 0.15 0.15 59 1012.8
20260902205003 83 302 1.7 5.2 0.00 0.15 0.15 61 1012.9
20260902204004 82 296 2.6 4.3 0.00 0.15 0.15 62 1012.9
20260902203004 82 256 2.6 6.1 0.00 0.15 0.15 60 1013.2
20260902201004 83 327 1.7 2.6 0.00 0.15 0.15 58 1013.3
20260902200003 82 308 1.7 4.3 0.00 0.15 0.15 61 1013.1
20260902195004 82 313 0.9 2.6 0.00 0.15 0.15 63 1013.0
20260902194004 80 303 2.6 6.1 0.00 0.15 0.15 62 1013.3
20260902191004 80 263 1.7 5.2 0.00 0.15 0.15 61 1013.6
20260902190004 80 267 2.6 6.1 0.00 0.15 0.15 63 1013.5
20260902185004 80 336 1.7 5.2 0.00 0.15 0.15 62 1013.6
20260902184004 79 355 1.7 7.0 0.00 0.15 0.15 67 1013.7
20260902183004 79 307 1.7 6.1 0.00 0.15 0.15 63 1013.9
20260902182004 79 291 1.7 7.0 0.00 0.15 0.15 66 1013.8
20260902181004 78 287 1.7 6.1 0.00 0.15 0.15 70 1013.6
20260902180006 78 306 2.6 7.0 0.00 0.15 0.15 71 1013.8
20260902175004 76 303 3.5 6.1 0.00 0.15 0.15 76 1014.0
20260902174004 76 280 3.5 6.1 0.00 0.15 0.15 76 1014.2
20260902171003 75 285 1.7 6.1 0.00 0.15 0.15 79 1014.1
20260902170003 75 229 1.7 5.2 0.00 0.15 0.15 80 1014.2
20260902165004 75 5 1.7 4.3 0.00 0.15 0.15 80 1014.3
20260902163003 72 275 2.6 5.2 0.00 0.15 0.15 85 1014.1
20260902161004 71 317 1.7 4.3 0.00 0.15 0.15 88 1014.1
20260902160005 70 302 1.7 5.2 0.00 0.15 0.15 88 1014.1
20260902155004 70 335 0.9 5.2 0.00 0.15 0.15 88 1014.0
20260902154004 71 285 1.7 5.2 0.00 0.15 0.15 88 1014.1
20260902153003 70 256 2.6 5.2 0.00 0.15 0.15 91 1014.1
20260902152004 70 284 1.7 4.3 0.00 0.15 0.15 89 1013.8
20260902151004 69 288 1.7 2.6 0.00 0.15 0.15 92 1013.6
20260902150004 67 337 0.9 1.7 0.00 0.15 0.15 97 1013.6
20260902145004 67 0 0.0 2.6 0.00 0.15 0.15 99 1013.9
20260902144004 65 4 1.7 2.6 0.00 0.15 0.15 99 1014.2
20260902143004 64 304 1.7 2.6 0.00 0.15 0.15 99 1014.5
20260902142004 63 325 1.7 4.3 0.00 0.15 0.15 99 1014.7
20260902140004 63 303 0.9 4.3 0.00 0.15 0.15 99 1014.9
20260902135004 63 288 1.7 4.3 0.00 0.15 0.15 99 1015.1
20260902134004 62 314 0.9 1.7 0.01 0.15 0.15 99 1014.9
20260902133003 62 302 0.0 2.6 0.00 0.15 0.15 99 1014.6
20260902132004 62 307 0.9 2.6 0.00 0.15 0.15 99 1014.9
20260902130004 62 331 0.0 2.6 0.00 0.15 0.15 99 1014.7
20260902125003 62 101 0.0 2.6 0.01 0.15 0.15 99 1014.8
20260902124004 61 317 0.9 2.6 0.01 0.15 0.15 99 1014.6
20260902123004 61 322 0.9 4.3 0.01 0.15 0.15 99 1014.5
20260902122004 61 340 1.7 4.3 0.01 0.15 0.15 99 1014.0
20260902121004 61 37 0.0 4.3 0.02 0.15 0.15 99 1013.9
20260902120004 61 81 0.9 2.6 0.05 0.15 0.15 99 1013.5
20260902115004 61 343 1.7 2.6 0.06 0.14 0.14 99 1013.3
20260902114004 61 250 0.0 1.7 0.08 0.14 0.14 99 1012.6
20260902113003 61 25 0.9 1.7 0.09 0.14 0.14 99 1012.7
20260902112004 62 342 0.9 2.6 0.11 0.14 0.14 99 1012.9
20260902111003 62 19 1.7 2.6 0.12 0.13 0.13 99 1013.1
20260902110005 62 29 1.7 4.3 0.10 0.10 0.10 99 1015.5
20260902105004 62 293 0.9 5.2 0.07 0.07 0.07 99 1016.8
20260902103004 62 277 1.7 4.3 0.05 0.05 0.05 99 1016.6
20260902102004 62 265 0.9 4.3 0.03 0.03 0.03 97 1016.7
20260902100003 64 297 1.7 4.3 0.00 0.00 0.00 91 1015.8
20260902095004 64 285 1.7 2.6 0.00 0.00 0.00 90 1015.3
20260902094004 63 302 1.7 2.6 0.00 0.00 0.00 92 1014.8